Location: Zagreb
(45.8000°N, 16.0000°E)
Time: 14:17:35
(UTC+02:00)

ISS - Pass Details

Date: 07 October 2021
Orbit: 417 x 423 km, 51.6° (Epoch: 16 October)

Event Time Altitude Azimuth Distance (km) Brightness Sun altitude
Rises 18:47:36 0° 294° (WNW) 2,364 1.4 -4.8°
Reaches altitude 10° 18:49:48 10° 285° (WNW) 1,497 0.5 -5.2°
Maximum altitude 18:52:52 34° 219° (SW) 710 -2.1 -5.7°
Drops below altitude 10° 18:55:57 10° 152° (SSE) 1,491 -1.2 -6.3°
Sets 18:58:08 0° 143° (SE) 2,352 -0.3 -6.6°
